Regional Weather Roundup
Issued by NWS

Home | Current Version | Previous Version | Graphics & Text | Print | Product List | Glossary On
Versions: 1 2 3 4 5 6 7 8 9 10 11 12 13 14 15 16 17 18 19 20 21 22 23 24 25 26 27 28 29 30 31 32 33 34 35 36 37 38 39 40 41 42 43 44 45 46 47 48 49 50
723
ASUS44 KJAN 311410
RWRMS

MISSISSIPPI HOURLY WEATHER ROUNDUP
NATIONAL WEATHER SERVICE JACKSON MS
900 AM CDT SUN AUG 31 2014

NOTE: "FAIR: INDICATES FEW OR NO CLOUDS BELOW 12,000 FEET WITH NO
SIGNIFICANT WEATHER AND/OR OBSTRUCTIONS TO VISIBILITY.

MSZ001>002-007>008-010>013-018>021-025>028-034>036-311500-
NORTHWEST MISSISSIPPI

CITY           SKY/WX    TMP DP  RH WIND       PRES   REMARKS
CLARKSDALE     CLOUDY    75  75 100 S9        30.07R
CLEVELAND      CLOUDY    76  74  94 SW7       30.06S
GREENWOOD      PTSUNNY   79  72  79 S10       30.07R
GREENVILLE     CLOUDY    78  72  81 SW12      30.06S
GRENADA        FAIR      73  70  88 S3        30.08S
OXFORD         CLOUDY    72  70  94 SW6       30.10R
TUNICA         CLOUDY    73  72  94 S13       30.05R
$$

MSZ003>006-009-014>017-022>024-029>033-037>039-311500-
NORTHEAST MISSISSIPPI

CITY           SKY/WX    TMP DP  RH WIND       PRES   REMARKS
BELMONT        PTSUNNY   74  71  89 S10       30.10S
COLUMBUS AFB   CLOUDY    75  73  94 VRB6      30.11R
CORINTH        CLOUDY    75  70  83 S7        30.07S
GOLDN TRIANGLE CLOUDY    73  70  88 S12       30.12R FOG
STARKVILLE     CLOUDY    72  70  94 S5        30.12R
TUPELO         CLOUDY    74  70  87 SW8       30.09R
$$

MSZ040-058-311500-
CENTRAL MISSISSIPPI

CITY           SKY/WX    TMP DP  RH WIND       PRES   REMARKS
JACKSON INTL   CLOUDY    76  72  87 S6        30.09F
JACKSON HAWKNS LGT RAIN  76  72  87 S5        30.10S
MERIDIAN KEY   CLOUDY    77  75  93 S7        30.12S FOG
MERIDIAN NAS   FOG       76  75  97 VRB3      30.12S VSB 3/4
RAYMOND        FAIR      75  72  88 SW3       30.10R
VICKSBURG      CLOUDY    76  72  87 S6        30.08S
$$

MSZ059>079-311500-
SOUTH MISSISSIPPI

CITY           SKY/WX    TMP DP  RH WIND       PRES   REMARKS
BROOKHAVEN     FAIR      73  73 100 CALM      30.13R
HATTIESBURG    FOG       76  75  97 CALM      30.12R VSB 1/2
MCCOMB         CLOUDY    75  73  93 CALM      30.11R
NATCHEZ        CLOUDY    75  72  88 SE5       30.10S
PINE BELT      CLOUDY   N/A N/A N/A CALM      30.12S VSB 1/2
$$

MSZ080>082-311500-
COASTAL MISSISSIPPI

CITY           SKY/WX    TMP DP  RH WIND       PRES   REMARKS
BAY ST LOUIS   MOSUNNY  N/A N/A N/A S5        30.09S
BILOXI         SUNNY     86  76  72 S8        30.10R HX  97
PASCAGOULA     MOSUNNY   84  77  79 S6        30.10R HX  94
GULFPORT       SUNNY     85  77  77 S8        30.09R HX  95
$$



USA.gov is the U.S. government's official web portal to all federal, state and local government web resources and services.